Time,TemperatureF,DewpointF,PressureIn,WindDirection,WindDirectionDegrees,WindSpeedMPH,WindSpeedGustMPH,Humidity,HourlyPrecipIn,Conditions,Clouds,dailyrainin,SoftwareType,DateUTC
2013-03-04 00:00:00,35.1,24.1,29.47,NW,315,3.4,6.0,64,0.00,,OVC,0.00,VWS V14.01,2013-03-04 05:00:00,
2013-03-04 00:01:00,35.1,24.1,29.47,NNW,338,5.4,5.4,64,0.00,,OVC,0.00,VWS V14.01,2013-03-04 05:01:00,
2013-03-04 00:06:00,34.9,24.3,29.47,NNW,338,3.6,5.6,65,0.00,,OVC,0.00,VWS V14.01,2013-03-04 05:06:00,
2013-03-04 00:11:00,34.9,24.3,29.47,North,0,4.9,6.5,65,0.00,,OVC,0.00,VWS V14.01,2013-03-04 05:11:00,
2013-03-04 00:16:00,34.9,24.0,29.47,NNW,338,4.7,5.8,64,0.00,,OVC,0.00,VWS V14.01,2013-03-04 05:16:00,
2013-03-04 00:21:00,34.9,24.0,29.47,NW,315,3.8,6.0,64,0.00,,OVC,0.00,VWS V14.01,2013-03-04 05:21:00,
2013-03-04 00:26:00,34.9,24.0,29.47,WNW,292,6.9,6.9,64,0.00,,OVC,0.00,VWS V14.01,2013-03-04 05:26:00,
2013-03-04 00:30:00,34.9,23.2,29.47,NNW,338,7.8,10.3,62,0.00,,,0.00,VWS V14.01,2013-03-04 05:30:00,
2013-03-04 00:31:00,34.9,24.0,29.47,WNW,292,4.3,5.4,64,0.00,,OVC,0.00,VWS V14.01,2013-03-04 05:31:00,
2013-03-04 00:36:00,34.9,23.6,29.47,NW,315,5.6,7.6,63,0.00,,OVC,0.00,VWS V14.01,2013-03-04 05:36:00,
2013-03-04 00:41:00,34.9,23.6,29.47,NNW,338,2.5,5.6,63,0.00,,OVC,0.00,VWS V14.01,2013-03-04 05:41:00,
2013-03-04 00:46:00,34.9,23.6,29.47,NNW,338,4.3,6.0,63,0.00,,OVC,0.00,VWS V14.01,2013-03-04 05:46:00,
2013-03-04 00:51:00,34.9,23.6,29.47,NNW,338,6.0,6.3,63,0.00,,OVC,0.00,VWS V14.01,2013-03-04 05:51:00,
2013-03-04 00:56:00,34.9,23.6,29.47,NNW,338,8.5,8.5,63,0.00,,OVC,0.00,VWS V14.01,2013-03-04 05:56:00,
2013-03-04 01:00:00,34.5,22.9,29.44,NNW,338,6.3,8.1,62,0.00,,,0.00,VWS V14.01,2013-03-04 06:00:00,
2013-03-04 01:01:00,34.9,23.6,29.47,NNW,338,3.6,5.8,63,0.00,,OVC,0.00,VWS V14.01,2013-03-04 06:01:00,
2013-03-04 01:06:00,34.9,23.6,29.47,North,0,4.9,4.9,63,0.00,,OVC,0.00,VWS V14.01,2013-03-04 06:06:00,
2013-03-04 01:11:00,34.9,23.2,29.47,NNW,338,3.6,6.0,62,0.00,,OVC,0.00,VWS V14.01,2013-03-04 06:11:00,
2013-03-04 01:16:00,34.9,23.2,29.47,NNW,338,8.5,10.1,62,0.00,,OVC,0.00,VWS V14.01,2013-03-04 06:16:00,
2013-03-04 01:21:00,34.9,22.8,29.47,NNW,338,6.0,7.6,61,0.00,,OVC,0.00,VWS V14.01,2013-03-04 06:21:00,
2013-03-04 01:26:00,34.9,23.2,29.47,NW,315,6.5,10.3,62,0.00,,OVC,0.00,VWS V14.01,2013-03-04 06:26:00,
2013-03-04 01:30:00,34.2,23.6,29.47,NW,315,4.9,7.2,65,0.00,,,0.00,VWS V14.01,2013-03-04 06:30:00,
2013-03-04 01:31:00,34.7,22.6,29.50,WNW,292,7.8,7.8,61,0.00,,OVC,0.00,VWS V14.01,2013-03-04 06:31:00,
2013-03-04 01:36:00,34.7,23.0,29.50,NNW,338,4.3,4.3,62,0.00,,OVC,0.00,VWS V14.01,2013-03-04 06:36:00,
2013-03-04 01:41:00,34.5,23.2,29.50,NW,315,8.5,8.5,63,0.00,,OVC,0.00,VWS V14.01,2013-03-04 06:41:00,
2013-03-04 01:46:00,34.5,23.2,29.44,NNW,338,4.3,7.6,63,0.00,,OVC,0.00,VWS V14.01,2013-03-04 06:46:00,
2013-03-04 01:51:00,34.5,23.2,29.44,NW,315,5.6,7.8,63,0.00,,OVC,0.00,VWS V14.01,2013-03-04 06:51:00,
2013-03-04 01:56:00,34.5,22.9,29.44,NNW,338,5.6,8.1,62,0.00,,OVC,0.00,VWS V14.01,2013-03-04 06:56:00,
2013-03-04 02:00:00,33.8,23.7,29.44,NW,315,10.7,10.7,66,0.00,,,0.00,VWS V14.01,2013-03-04 07:00:00,
2013-03-04 02:01:00,34.5,22.9,29.47,NW,315,8.7,10.1,62,0.00,,OVC,0.00,VWS V14.01,2013-03-04 07:01:00,
2013-03-04 02:06:00,34.5,22.9,29.47,NW,315,5.4,5.4,62,0.00,,OVC,0.00,VWS V14.01,2013-03-04 07:06:00,
2013-03-04 02:11:00,34.5,22.9,29.47,NNW,338,4.9,7.8,62,0.00,,OVC,0.00,VWS V14.01,2013-03-04 07:11:00,
2013-03-04 02:16:00,34.3,23.4,29.47,NNW,338,7.4,7.8,64,0.00,,OVC,0.00,VWS V14.01,2013-03-04 07:16:00,
2013-03-04 02:21:00,34.2,23.3,29.47,NNW,338,4.3,4.9,64,0.00,,OVC,0.00,VWS V14.01,2013-03-04 07:21:00,
2013-03-04 02:26:00,34.2,23.6,29.47,NNW,338,4.0,7.2,65,0.00,,OVC,0.00,VWS V14.01,2013-03-04 07:26:00,
2013-03-04 02:30:00,33.6,23.1,29.47,NNW,338,9.8,10.7,65,0.00,,,0.00,VWS V14.01,2013-03-04 07:30:00,
2013-03-04 02:31:00,34.0,23.8,29.44,NNW,338,8.1,8.5,66,0.00,,OVC,0.00,VWS V14.01,2013-03-04 07:31:00,
2013-03-04 02:36:00,34.0,23.8,29.44,NW,315,6.7,8.7,66,0.00,,OVC,0.00,VWS V14.01,2013-03-04 07:36:00,
2013-03-04 02:41:00,34.0,23.8,29.44,NNW,338,5.6,7.2,66,0.00,,OVC,0.00,VWS V14.01,2013-03-04 07:41:00,
2013-03-04 02:46:00,33.8,23.7,29.44,NNW,338,8.7,8.7,66,0.00,,OVC,0.00,VWS V14.01,2013-03-04 07:46:00,
2013-03-04 02:52:00,34.0,23.5,29.44,NNW,338,12.8,12.8,65,0.00,,OVC,0.00,VWS V14.01,2013-03-04 07:52:00,
2013-03-04 02:57:00,33.8,23.7,29.44,NNW,338,5.4,10.7,66,0.00,,OVC,0.00,VWS V14.01,2013-03-04 07:57:00,
2013-03-04 03:00:00,33.3,23.5,29.44,NW,315,7.6,10.1,67,0.00,,,0.00,VWS V14.01,2013-03-04 08:00:00,
2013-03-04 03:02:00,33.8,23.7,29.47,NW,315,7.4,10.1,66,0.00,,OVC,0.00,VWS V14.01,2013-03-04 08:02:00,
2013-03-04 03:07:00,33.6,23.9,29.47,NNW,338,7.2,10.3,67,0.00,,OVC,0.00,VWS V14.01,2013-03-04 08:07:00,
2013-03-04 03:12:00,33.6,23.9,29.47,NNW,338,4.9,6.0,67,0.00,,OVC,0.00,VWS V14.01,2013-03-04 08:12:00,
2013-03-04 03:17:00,33.6,23.9,29.47,NW,315,11.4,11.4,67,0.00,,OVC,0.00,VWS V14.01,2013-03-04 08:17:00,
2013-03-04 03:22:00,33.6,23.5,29.47,NNW,338,7.4,9.6,66,0.00,,OVC,0.00,VWS V14.01,2013-03-04 08:22:00,
2013-03-04 03:27:00,33.6,23.5,29.47,NW,315,7.6,10.7,66,0.00,,OVC,0.00,VWS V14.01,2013-03-04 08:27:00,
2013-03-04 03:30:00,32.9,23.9,29.44,NNW,338,7.8,10.3,69,0.00,,,0.00,VWS V14.01,2013-03-04 08:30:00,
2013-03-04 03:32:00,33.6,23.9,29.44,NNW,338,8.7,8.7,67,0.00,,OVC,0.00,VWS V14.01,2013-03-04 08:32:00,
2013-03-04 03:37:00,33.4,23.3,29.44,NNW,338,10.5,10.7,66,0.00,,OVC,0.00,VWS V14.01,2013-03-04 08:37:00,
2013-03-04 03:42:00,33.4,23.3,29.44,North,0,6.0,9.8,66,0.00,,OVC,0.00,VWS V14.01,2013-03-04 08:42:00,
2013-03-04 03:47:00,33.4,23.3,29.44,NW,315,12.1,12.3,66,0.00,,OVC,0.00,VWS V14.01,2013-03-04 08:47:00,
2013-03-04 03:52:00,33.3,23.5,29.44,NNW,338,8.1,8.7,67,0.00,,OVC,0.00,VWS V14.01,2013-03-04 08:52:00,
2013-03-04 03:57:00,33.3,23.1,29.44,NW,315,8.1,10.7,66,0.00,,OVC,0.00,VWS V14.01,2013-03-04 08:57:00,
2013-03-04 04:00:00,32.5,24.2,29.47,NW,315,8.1,12.5,71,0.00,,,0.00,VWS V14.01,2013-03-04 09:00:00,
2013-03-04 04:02:00,33.3,23.5,29.47,NW,315,7.4,10.5,67,0.00,,OVC,0.00,VWS V14.01,2013-03-04 09:02:00,
2013-03-04 04:07:00,33.3,23.5,29.47,NW,315,9.4,9.4,67,0.00,,OVC,0.00,VWS V14.01,2013-03-04 09:07:00,
2013-03-04 04:12:00,33.3,23.5,29.47,NNW,338,6.5,10.5,67,0.00,,OVC,0.00,VWS V14.01,2013-03-04 09:12:00,
2013-03-04 04:17:00,33.1,23.7,29.44,NNW,338,13.2,13.4,68,0.00,,OVC,0.00,VWS V14.01,2013-03-04 09:17:00,
2013-03-04 04:22:00,33.1,24.0,29.44,NNW,338,6.3,8.7,69,0.00,,OVC,0.00,VWS V14.01,2013-03-04 09:22:00,
2013-03-04 04:27:00,32.7,23.7,29.44,NNW,338,8.5,8.7,69,0.00,,OVC,0.00,VWS V14.01,2013-03-04 09:27:00,
2013-03-04 04:30:00,32.0,24.3,29.44,NNW,338,7.4,11.0,73,0.00,,,0.00,VWS V14.01,2013-03-04 09:30:00,
2013-03-04 04:32:00,32.7,23.7,29.44,NNW,338,7.6,9.8,69,0.00,,OVC,0.00,VWS V14.01,2013-03-04 09:32:00,
2013-03-04 04:37:00,32.7,23.7,29.44,NNW,338,7.6,11.0,69,0.00,,OVC,0.00,VWS V14.01,2013-03-04 09:37:00,
2013-03-04 04:42:00,32.5,23.9,29.44,NNW,338,10.3,10.3,70,0.00,,OVC,0.00,VWS V14.01,2013-03-04 09:42:00,
2013-03-04 04:47:00,32.5,23.9,29.47,NNW,338,6.3,10.5,70,0.00,,OVC,0.00,VWS V14.01,2013-03-04 09:47:00,
2013-03-04 04:52:00,32.5,24.2,29.47,NNW,338,7.6,7.8,71,0.00,,OVC,0.00,VWS V14.01,2013-03-04 09:52:00,
2013-03-04 04:57:00,32.5,24.2,29.47,NW,315,10.7,12.5,71,0.00,,OVC,0.00,VWS V14.01,2013-03-04 09:57:00,
2013-03-04 05:00:00,31.5,24.5,29.44,NNW,338,6.3,13.0,75,0.00,,,0.00,VWS V14.01,2013-03-04 10:00:00,
2013-03-04 05:02:00,32.4,24.4,29.47,NNW,338,12.1,12.1,72,0.00,,OVC,0.00,VWS V14.01,2013-03-04 10:02:00,
2013-03-04 05:07:00,32.2,24.5,29.44,NW,315,11.0,11.0,73,0.00,,OVC,0.00,VWS V14.01,2013-03-04 10:07:00,
2013-03-04 05:12:00,32.2,24.5,29.44,NNW,338,6.5,8.7,73,0.00,,OVC,0.00,VWS V14.01,2013-03-04 10:12:00,
2013-03-04 05:17:00,32.0,24.7,29.44,NNW,338,8.1,13.2,74,0.00,,OVC,0.00,VWS V14.01,2013-03-04 10:17:00,
2013-03-04 05:22:00,32.0,24.3,29.44,NNW,338,10.1,10.3,73,0.00,,OVC,0.00,VWS V14.01,2013-03-04 10:22:00,
2013-03-04 05:27:00,31.8,24.2,29.44,NNW,338,6.5,11.9,73,0.00,,OVC,0.00,VWS V14.01,2013-03-04 10:27:00,
2013-03-04 05:30:00,31.6,24.0,29.44,NNW,338,5.8,8.1,73,0.00,,,0.00,VWS V14.01,2013-03-04 10:30:00,
2013-03-04 05:32:00,31.8,24.5,29.44,NNW,338,8.1,8.7,74,0.00,,OVC,0.00,VWS V14.01,2013-03-04 10:32:00,
2013-03-04 05:37:00,31.6,24.3,29.44,NNW,338,7.8,9.8,74,0.00,,OVC,0.00,VWS V14.01,2013-03-04 10:37:00,
2013-03-04 05:42:00,31.6,24.6,29.44,North,0,9.6,10.5,75,0.00,,OVC,0.00,VWS V14.01,2013-03-04 10:42:00,
2013-03-04 05:47:00,31.6,24.6,29.44,NNW,338,10.1,10.1,75,0.00,,OVC,0.00,VWS V14.01,2013-03-04 10:47:00,
2013-03-04 05:52:00,31.5,24.5,29.44,NW,315,10.5,10.7,75,0.00,,OVC,0.00,VWS V14.01,2013-03-04 10:52:00,
2013-03-04 05:57:00,31.6,24.3,29.44,NNW,338,10.1,11.0,74,0.00,,OVC,0.00,VWS V14.01,2013-03-04 10:57:00,
2013-03-04 06:00:00,32.2,23.5,29.44,NNW,338,7.8,7.8,70,0.00,,,0.00,VWS V14.01,2013-03-04 11:00:00,
2013-03-04 06:02:00,31.5,24.1,29.44,NNW,338,5.6,9.8,74,0.00,,OVC,0.00,VWS V14.01,2013-03-04 11:02:00,
2013-03-04 06:07:00,31.5,24.5,29.44,NNW,338,8.5,10.1,75,0.00,,OVC,0.00,VWS V14.01,2013-03-04 11:07:00,
2013-03-04 06:12:00,31.5,23.8,29.44,NNW,338,8.1,10.1,73,0.00,,OVC,0.00,VWS V14.01,2013-03-04 11:12:00,
2013-03-04 06:17:00,31.6,24.0,29.44,NW,315,8.5,11.0,73,0.00,,OVC,0.00,VWS V14.01,2013-03-04 11:17:00,
2013-03-04 06:22:00,31.6,24.0,29.44,NNW,338,10.5,13.0,73,0.00,,OVC,0.00,VWS V14.01,2013-03-04 11:22:00,
2013-03-04 06:27:00,31.6,24.0,29.44,NW,315,7.8,7.8,73,0.00,,OVC,0.00,VWS V14.01,2013-03-04 11:27:00,
2013-03-04 06:30:00,32.5,22.5,29.44,WNW,292,13.2,13.2,66,0.00,,,0.00,VWS V14.01,2013-03-04 11:30:00,
2013-03-04 06:32:00,31.6,24.0,29.44,NW,315,5.8,12.5,73,0.00,,OVC,0.00,VWS V14.01,2013-03-04 11:32:00,
2013-03-04 06:37:00,31.6,24.0,29.44,WNW,292,10.7,14.8,73,0.00,,OVC,0.00,VWS V14.01,2013-03-04 11:37:00,
2013-03-04 06:42:00,31.8,24.2,29.44,NNW,338,9.6,14.1,73,0.00,,OVC,0.00,VWS V14.01,2013-03-04 11:42:00,
2013-03-04 06:47:00,31.8,23.8,29.44,NW,315,6.3,8.7,72,0.00,,OVC,0.00,VWS V14.01,2013-03-04 11:47:00,
2013-03-04 06:52:00,32.0,23.7,29.44,NNW,338,8.5,13.9,71,0.00,,OVC,0.00,VWS V14.01,2013-03-04 11:52:00,
2013-03-04 06:57:00,32.2,23.5,29.44,NNW,338,9.6,11.0,70,0.00,,OVC,0.00,VWS V14.01,2013-03-04 11:57:00,
2013-03-04 07:00:00,32.0,23.7,29.47,NNW,338,10.3,13.2,71,0.00,,,0.00,VWS V14.01,2013-03-04 12:00:00,
2013-03-04 07:02:00,32.4,23.0,29.44,NW,315,11.0,12.1,68,0.00,,OVC,0.00,VWS V14.01,2013-03-04 12:02:00,
2013-03-04 07:07:00,32.5,23.2,29.44,NW,315,7.8,11.2,68,0.00,,OVC,0.00,VWS V14.01,2013-03-04 12:07:00,
2013-03-04 07:12:00,32.5,22.5,29.44,NW,315,6.3,9.6,66,0.00,,OVC,0.00,VWS V14.01,2013-03-04 12:12:00,
2013-03-04 07:17:00,32.7,22.6,29.44,NNW,338,10.1,10.1,66,0.00,,OVC,0.00,VWS V14.01,2013-03-04 12:17:00,
2013-03-04 07:22:00,32.5,22.5,29.44,NNW,338,10.3,11.2,66,0.00,,OVC,0.00,VWS V14.01,2013-03-04 12:22:00,
2013-03-04 07:27:00,32.5,23.2,29.44,NNW,338,11.0,13.0,68,0.00,,OVC,0.00,VWS V14.01,2013-03-04 12:27:00,
2013-03-04 07:30:00,32.5,22.8,29.44,NNW,338,8.1,9.4,67,0.00,,,0.00,VWS V14.01,2013-03-04 12:30:00,
2013-03-04 07:32:00,32.4,23.3,29.47,NNW,338,12.3,12.3,69,0.00,,OVC,0.00,VWS V14.01,2013-03-04 12:32:00,
2013-03-04 07:37:00,32.2,23.9,29.47,NNW,338,8.5,8.5,71,0.00,,OVC,0.00,VWS V14.01,2013-03-04 12:37:00,
2013-03-04 07:42:00,32.2,24.2,29.47,NNW,338,9.2,10.3,72,0.00,,OVC,0.00,VWS V14.01,2013-03-04 12:42:00,
2013-03-04 07:47:00,32.0,23.3,29.47,NW,315,8.5,14.8,70,0.00,,OVC,0.00,VWS V14.01,2013-03-04 12:47:00,
2013-03-04 07:52:00,32.0,23.7,29.47,NNW,338,10.7,10.7,71,0.00,,OVC,0.00,VWS V14.01,2013-03-04 12:52:00,
2013-03-04 07:57:00,32.0,23.7,29.47,NNW,338,8.7,10.3,71,0.00,,OVC,0.00,VWS V14.01,2013-03-04 12:57:00,
2013-03-04 08:00:00,32.9,20.9,29.44,NNW,338,9.6,12.8,61,0.00,,,0.00,VWS V14.01,2013-03-04 13:00:00,
2013-03-04 08:02:00,32.0,23.7,29.47,NNW,338,7.6,10.3,71,0.00,,OVC,0.00,VWS V14.01,2013-03-04 13:02:00,
2013-03-04 08:07:00,32.0,24.0,29.47,WNW,292,6.3,8.1,72,0.00,,OVC,0.00,VWS V14.01,2013-03-04 13:07:00,
2013-03-04 08:12:00,32.0,24.0,29.47,NNW,338,7.6,10.3,72,0.00,,OVC,0.00,VWS V14.01,2013-03-04 13:12:00,
2013-03-04 08:17:00,32.2,23.2,29.44,NW,315,10.5,10.5,69,0.00,,OVC,0.00,VWS V14.01,2013-03-04 13:17:00,
2013-03-04 08:22:00,32.4,22.6,29.44,NW,315,14.8,14.8,67,0.00,,OVC,0.00,VWS V14.01,2013-03-04 13:22:00,
2013-03-04 08:27:00,32.5,22.8,29.44,WNW,292,6.5,10.7,67,0.00,,OVC,0.00,VWS V14.01,2013-03-04 13:27:00,
2013-03-04 08:30:00,32.5,23.9,29.44,NNW,338,9.0,10.3,70,0.00,,,0.00,VWS V14.01,2013-03-04 13:30:00,
2013-03-04 08:32:00,32.7,22.6,29.44,NNW,338,4.0,8.5,66,0.00,,OVC,0.00,VWS V14.01,2013-03-04 13:32:00,
2013-03-04 08:37:00,32.7,22.3,29.44,NNW,338,6.0,13.0,65,0.00,,OVC,0.00,VWS V14.01,2013-03-04 13:37:00,
2013-03-04 08:42:00,32.7,22.3,29.44,NW,315,8.7,10.3,65,0.00,,OVC,0.00,VWS V14.01,2013-03-04 13:42:00,
2013-03-04 08:47:00,33.1,21.9,29.44,NNW,338,6.7,6.7,63,0.00,,OVC,0.00,VWS V14.01,2013-03-04 13:47:00,
2013-03-04 08:52:00,32.9,21.3,29.44,NNW,338,9.8,12.1,62,0.00,,OVC,0.00,VWS V14.01,2013-03-04 13:52:00,
2013-03-04 08:57:00,32.9,20.9,29.44,NW,315,9.6,10.1,61,0.00,,OVC,0.00,VWS V14.01,2013-03-04 13:57:00,
2013-03-04 09:00:00,32.2,25.2,29.44,NNW,338,5.6,10.3,75,0.00,,,0.00,VWS V14.01,2013-03-04 14:00:00,
2013-03-04 09:02:00,32.9,21.3,29.44,NNW,338,10.3,10.5,62,0.00,,OVC,0.00,VWS V14.01,2013-03-04 14:02:00,
2013-03-04 09:07:00,32.9,21.3,29.44,NW,315,10.3,10.3,62,0.00,,OVC,0.00,VWS V14.01,2013-03-04 14:07:00,
2013-03-04 09:12:00,32.7,22.3,29.44,NNW,338,7.8,7.8,65,0.00,,OVC,0.00,VWS V14.01,2013-03-04 14:12:00,
2013-03-04 09:17:00,32.5,23.2,29.44,NNW,338,6.3,6.3,68,0.00,,OVC,0.00,VWS V14.01,2013-03-04 14:17:00,
2013-03-04 09:22:00,32.5,23.9,29.44,NNW,338,5.8,8.1,70,0.00,,OVC,0.00,VWS V14.01,2013-03-04 14:22:00,
2013-03-04 09:28:00,32.4,23.3,29.44,NW,315,11.0,11.0,69,0.00,,OVC,0.00,VWS V14.01,2013-03-04 14:28:00,
2013-03-04 09:30:00,32.7,24.4,29.44,NNW,338,8.1,12.5,71,0.00,,,0.00,VWS V14.01,2013-03-04 14:30:00,
2013-03-04 09:33:00,32.4,23.7,29.44,WNW,292,8.1,11.0,70,0.00,,OVC,0.00,VWS V14.01,2013-03-04 14:33:00,
2013-03-04 09:38:00,32.2,24.2,29.44,NNW,338,5.6,8.5,72,0.00,,OVC,0.00,VWS V14.01,2013-03-04 14:38:00,
2013-03-04 09:43:00,32.2,24.2,29.44,NNW,338,6.3,8.5,72,0.00,,OVC,0.00,VWS V14.01,2013-03-04 14:43:00,
2013-03-04 09:48:00,32.0,24.7,29.44,NW,315,7.8,11.2,74,0.00,,OVC,0.00,VWS V14.01,2013-03-04 14:48:00,
2013-03-04 09:53:00,32.0,24.7,29.44,NW,315,10.5,11.4,74,0.00,,OVC,0.00,VWS V14.01,2013-03-04 14:53:00,
2013-03-04 09:58:00,32.2,24.8,29.44,NNW,338,7.6,12.5,74,0.00,,OVC,0.00,VWS V14.01,2013-03-04 14:58:00,
2013-03-04 10:00:00,33.3,23.9,29.41,WNW,292,8.7,10.5,68,0.00,,,0.00,VWS V14.01,2013-03-04 15:00:00,
2013-03-04 10:03:00,32.5,25.2,29.44,WNW,292,12.1,12.1,74,0.00,,OVC,0.00,VWS V14.01,2013-03-04 15:03:00,
2013-03-04 10:08:00,32.5,24.9,29.44,NNW,338,10.5,11.0,73,0.00,,OVC,0.00,VWS V14.01,2013-03-04 15:08:00,
2013-03-04 10:13:00,32.5,24.5,29.44,WNW,292,8.5,10.5,72,0.00,,OVC,0.00,VWS V14.01,2013-03-04 15:13:00,
2013-03-04 10:18:00,32.5,24.5,29.44,NW,315,7.4,10.3,72,0.00,,OVC,0.00,VWS V14.01,2013-03-04 15:18:00,
2013-03-04 10:23:00,32.7,24.4,29.44,NW,315,7.8,10.3,71,0.00,,OVC,0.00,VWS V14.01,2013-03-04 15:23:00,
2013-03-04 10:28:00,32.7,24.4,29.44,NW,315,7.4,10.1,71,0.00,,OVC,0.00,VWS V14.01,2013-03-04 15:28:00,
2013-03-04 10:30:00,34.0,23.5,29.41,WNW,292,7.8,10.5,65,0.00,,,0.00,VWS V14.01,2013-03-04 15:30:00,
2013-03-04 10:33:00,32.9,24.2,29.44,NNW,338,8.5,12.5,70,0.00,,OVC,0.00,VWS V14.01,2013-03-04 15:33:00,
2013-03-04 10:38:00,32.9,23.9,29.44,WNW,292,12.8,12.8,69,0.00,,OVC,0.00,VWS V14.01,2013-03-04 15:38:00,
2013-03-04 10:43:00,33.1,24.0,29.44,NW,315,7.4,11.2,69,0.00,,OVC,0.00,VWS V14.01,2013-03-04 15:43:00,
2013-03-04 10:48:00,33.3,23.9,29.41,NNW,338,7.8,10.7,68,0.00,,OVC,0.00,VWS V14.01,2013-03-04 15:48:00,
2013-03-04 10:53:00,33.3,23.9,29.41,NW,315,8.1,10.7,68,0.00,,OVC,0.00,VWS V14.01,2013-03-04 15:53:00,
2013-03-04 10:58:00,33.4,24.0,29.41,NW,315,13.2,13.2,68,0.00,,OVC,0.00,VWS V14.01,2013-03-04 15:58:00,
2013-03-04 11:00:00,34.3,24.9,29.44,NNW,338,11.0,11.0,68,0.00,,,0.00,VWS V14.01,2013-03-04 16:00:00,
2013-03-04 11:03:00,33.6,24.2,29.44,NW,315,9.6,12.8,68,0.00,,OVC,0.00,VWS V14.01,2013-03-04 16:03:00,
2013-03-04 11:08:00,34.0,23.5,29.44,NW,315,4.3,13.4,65,0.00,,OVC,0.00,VWS V14.01,2013-03-04 16:08:00,
2013-03-04 11:13:00,34.2,23.6,29.44,NNW,338,9.8,9.8,65,0.00,,OVC,0.00,VWS V14.01,2013-03-04 16:13:00,
2013-03-04 11:18:00,34.2,23.6,29.41,NW,315,8.1,11.0,65,0.00,,OVC,0.00,VWS V14.01,2013-03-04 16:18:00,
2013-03-04 11:23:00,34.0,23.5,29.41,NW,315,9.8,10.5,65,0.00,,OVC,0.00,VWS V14.01,2013-03-04 16:23:00,
2013-03-04 11:28:00,34.0,23.8,29.41,NNW,338,8.1,12.3,66,0.00,,OVC,0.00,VWS V14.01,2013-03-04 16:28:00,
2013-03-04 11:30:00,34.2,26.1,29.44,NNW,338,12.1,12.1,72,0.00,,,0.00,VWS V14.01,2013-03-04 16:30:00,
2013-03-04 11:33:00,34.2,24.0,29.41,NW,315,7.6,7.8,66,0.00,,OVC,0.00,VWS V14.01,2013-03-04 16:33:00,
2013-03-04 11:38:00,34.2,23.6,29.41,West,270,12.8,17.0,65,0.00,,OVC,0.00,VWS V14.01,2013-03-04 16:38:00,
2013-03-04 11:43:00,34.2,24.4,29.41,NW,315,5.6,8.7,67,0.00,,OVC,0.00,VWS V14.01,2013-03-04 16:43:00,
2013-03-04 11:48:00,34.2,24.4,29.44,NW,315,5.6,8.1,67,0.00,,OVC,0.00,VWS V14.01,2013-03-04 16:48:00,
2013-03-04 11:53:00,34.2,24.4,29.44,NW,315,6.0,10.3,67,0.00,,OVC,0.00,VWS V14.01,2013-03-04 16:53:00,
2013-03-04 11:58:00,34.3,24.9,29.44,NW,315,10.1,10.7,68,0.00,,OVC,0.00,VWS V14.01,2013-03-04 16:58:00,
2013-03-04 12:00:00,34.3,27.2,29.44,NW,315,7.4,12.3,75,0.00,,,0.00,VWS V14.01,2013-03-04 17:00:00,
2013-03-04 12:03:00,34.2,25.1,29.44,NNW,338,14.8,14.8,69,0.00,,OVC,0.00,VWS V14.01,2013-03-04 17:03:00,
2013-03-04 12:08:00,34.2,25.4,29.44,NNW,338,11.0,13.9,70,0.00,,OVC,0.00,VWS V14.01,2013-03-04 17:08:00,
2013-03-04 12:13:00,34.0,25.9,29.44,NNW,338,8.7,8.7,72,0.00,,OVC,0.00,VWS V14.01,2013-03-04 17:13:00,
2013-03-04 12:18:00,34.0,26.2,29.44,WNW,292,10.5,10.7,73,0.00,,OVC,0.00,VWS V14.01,2013-03-04 17:18:00,
2013-03-04 12:23:00,34.3,26.6,29.44,NNW,338,11.0,11.0,73,0.00,,OVC,0.00,VWS V14.01,2013-03-04 17:23:00,
2013-03-04 12:28:00,34.3,26.3,29.44,NNW,338,5.8,7.2,72,0.00,,OVC,0.00,VWS V14.01,2013-03-04 17:28:00,
2013-03-04 12:30:00,33.6,29.0,29.44,NNW,338,8.1,8.1,83,0.00,,,0.00,VWS V14.01,2013-03-04 17:30:00,
2013-03-04 12:34:00,34.3,26.3,29.44,NW,315,8.1,11.0,72,0.00,,OVC,0.00,VWS V14.01,2013-03-04 17:34:00,
2013-03-04 12:38:00,34.3,26.9,29.44,NW,315,6.0,7.8,74,0.00,,OVC,0.00,VWS V14.01,2013-03-04 17:38:00,
2013-03-04 12:44:00,34.7,27.0,29.44,NNW,338,10.1,10.1,73,0.00,,OVC,0.00,VWS V14.01,2013-03-04 17:44:00,
2013-03-04 12:49:00,34.3,26.6,29.44,NNW,338,9.8,9.8,73,0.00,,OVC,0.00,VWS V14.01,2013-03-04 17:49:00,
2013-03-04 12:54:00,34.3,26.6,29.44,NNW,338,7.2,7.4,73,0.00,,OVC,0.00,VWS V14.01,2013-03-04 17:54:00,
2013-03-04 12:59:00,34.3,27.2,29.44,NNW,338,9.8,10.3,75,0.00,,OVC,0.00,VWS V14.01,2013-03-04 17:59:00,
2013-03-04 13:00:00,34.5,28.4,29.44,NNW,338,8.1,8.1,78,0.00,,,0.00,VWS V14.01,2013-03-04 18:00:00,
2013-03-04 13:04:00,34.2,27.4,29.44,NW,315,8.7,9.0,76,0.00,,OVC,0.00,VWS V14.01,2013-03-04 18:04:00,
2013-03-04 13:09:00,34.2,27.7,29.44,NNW,338,7.4,13.0,77,0.00,,OVC,0.00,VWS V14.01,2013-03-04 18:09:00,
2013-03-04 13:14:00,34.0,27.9,29.44,WNW,292,8.1,8.1,78,0.00,,OVC,0.00,VWS V14.01,2013-03-04 18:14:00,
2013-03-04 13:19:00,33.8,28.6,29.44,NNW,338,5.6,7.8,81,0.00,,OVC,0.00,VWS V14.01,2013-03-04 18:19:00,
2013-03-04 13:24:00,33.6,29.0,29.44,WNW,292,8.1,10.5,83,0.00,,OVC,0.00,VWS V14.01,2013-03-04 18:24:00,
2013-03-04 13:29:00,33.6,29.0,29.44,NNW,338,7.8,12.8,83,0.00,,OVC,0.00,VWS V14.01,2013-03-04 18:29:00,
2013-03-04 13:30:00,33.6,29.3,29.44,NNW,338,6.3,7.8,84,0.00,,OVC,0.00,VWS V14.01,2013-03-04 18:30:00,
2013-03-04 13:35:00,34.0,29.7,29.44,NNW,338,3.8,7.2,84,0.00,,OVC,0.00,VWS V14.01,2013-03-04 18:35:00,
2013-03-04 13:40:00,34.5,29.3,29.44,NW,315,5.6,8.7,81,0.00,,OVC,0.00,VWS V14.01,2013-03-04 18:40:00,
2013-03-04 13:45:00,34.5,29.0,29.44,NNW,338,7.8,7.8,80,0.00,,OVC,0.00,VWS V14.01,2013-03-04 18:45:00,
2013-03-04 13:50:00,34.3,28.5,29.44,NNW,338,10.5,12.3,79,0.00,,OVC,0.00,VWS V14.01,2013-03-04 18:50:00,
2013-03-04 13:55:00,34.3,28.5,29.44,NNW,338,5.4,8.7,79,0.00,,OVC,0.00,VWS V14.01,2013-03-04 18:55:00,
2013-03-04 14:00:00,34.7,28.5,29.44,NNW,338,6.0,6.0,78,0.00,,OVC,0.00,VWS V14.01,2013-03-04 19:00:00,
2013-03-04 14:05:00,34.7,28.5,29.44,NW,315,5.8,6.0,78,0.00,,OVC,0.00,VWS V14.01,2013-03-04 19:05:00,
2013-03-04 14:10:00,34.9,28.7,29.44,NW,315,7.6,7.6,78,0.00,,OVC,0.00,VWS V14.01,2013-03-04 19:10:00,
2013-03-04 14:15:00,34.9,28.4,29.44,NW,315,5.6,5.6,77,0.00,,OVC,0.00,VWS V14.01,2013-03-04 19:15:00,
2013-03-04 14:20:00,34.9,28.1,29.44,NW,315,6.3,6.5,76,0.00,,OVC,0.00,VWS V14.01,2013-03-04 19:20:00,
2013-03-04 14:25:00,34.7,28.2,29.44,NNW,338,8.7,8.7,77,0.00,,OVC,0.00,VWS V14.01,2013-03-04 19:25:00,
2013-03-04 14:30:00,34.5,28.1,29.44,NW,315,7.8,10.5,77,0.00,,OVC,0.00,VWS V14.01,2013-03-04 19:30:00,
2013-03-04 14:35:00,34.3,27.9,29.44,NNW,338,8.5,10.1,77,0.00,,OVC,0.00,VWS V14.01,2013-03-04 19:35:00,
2013-03-04 14:40:00,34.5,28.4,29.44,NNW,338,6.0,6.5,78,0.00,,OVC,0.00,VWS V14.01,2013-03-04 19:40:00,
2013-03-04 14:45:00,35.2,28.8,29.44,WNW,292,5.4,8.1,77,0.00,,OVC,0.00,VWS V14.01,2013-03-04 19:45:00,
2013-03-04 14:50:00,35.4,28.6,29.44,WNW,292,10.5,10.5,76,0.00,,OVC,0.00,VWS V14.01,2013-03-04 19:50:00,
2013-03-04 14:55:00,35.1,28.3,29.44,NNW,338,8.5,12.3,76,0.00,,OVC,0.00,VWS V14.01,2013-03-04 19:55:00,
2013-03-04 15:00:00,34.9,28.1,29.44,NW,315,6.3,9.2,76,0.00,,OVC,0.00,VWS V14.01,2013-03-04 20:00:00,
2013-03-04 15:05:00,34.9,28.1,29.44,NNW,338,8.7,8.7,76,0.00,,OVC,0.00,VWS V14.01,2013-03-04 20:05:00,
2013-03-04 15:10:00,34.7,27.9,29.44,NNW,338,5.8,8.7,76,0.00,,OVC,0.00,VWS V14.01,2013-03-04 20:10:00,
2013-03-04 15:15:00,34.5,28.4,29.44,NW,315,4.3,9.8,78,0.00,,OVC,0.00,VWS V14.01,2013-03-04 20:15:00,
2013-03-04 15:20:00,34.5,28.7,29.44,NNW,338,7.2,9.8,79,0.00,,OVC,0.00,VWS V14.01,2013-03-04 20:20:00,
2013-03-04 15:25:00,34.3,29.4,29.44,NNW,338,6.5,6.5,82,0.00,,OVC,0.00,VWS V14.01,2013-03-04 20:25:00,
2013-03-04 15:30:00,34.3,30.0,29.44,NNW,338,4.0,6.3,84,0.00,,OVC,0.00,VWS V14.01,2013-03-04 20:30:00,
2013-03-04 15:35:00,34.3,30.0,29.44,NNW,338,5.8,7.6,84,0.00,,OVC,0.00,VWS V14.01,2013-03-04 20:35:00,
2013-03-04 15:40:00,34.3,30.0,29.44,NNW,338,8.7,8.7,84,0.00,,OVC,0.00,VWS V14.01,2013-03-04 20:40:00,
2013-03-04 15:45:00,34.5,30.5,29.44,NNW,338,4.9,10.1,85,0.00,,OVC,0.00,VWS V14.01,2013-03-04 20:45:00,
2013-03-04 15:50:00,34.7,30.7,29.44,NNW,338,7.6,7.6,85,0.00,,OVC,0.00,VWS V14.01,2013-03-04 20:50:00,
2013-03-04 15:55:00,34.5,30.8,29.44,NW,315,9.6,10.5,86,0.00,,OVC,0.00,VWS V14.01,2013-03-04 20:55:00,
2013-03-04 16:00:00,34.5,31.1,29.44,NNW,338,6.0,8.7,87,0.00,,OVC,0.00,VWS V14.01,2013-03-04 21:00:00,
2013-03-04 16:05:00,34.3,31.4,29.44,NW,315,4.3,6.5,89,0.00,,OVC,0.00,VWS V14.01,2013-03-04 21:05:00,
2013-03-04 16:10:00,34.3,31.7,29.44,NNW,338,6.3,6.5,90,0.00,,OVC,0.00,VWS V14.01,2013-03-04 21:10:00,
2013-03-04 16:15:00,34.2,32.1,29.44,NNW,338,5.4,6.9,92,0.00,,OVC,0.00,VWS V14.01,2013-03-04 21:15:00,
2013-03-04 16:20:00,34.2,32.3,29.47,NW,315,7.6,7.6,93,0.00,,OVC,0.00,VWS V14.01,2013-03-04 21:20:00,
2013-03-04 16:25:00,34.2,32.6,29.47,NNW,338,5.6,10.1,94,0.00,,OVC,0.00,VWS V14.01,2013-03-04 21:25:00,
2013-03-04 16:30:00,34.2,32.9,29.47,NNW,338,6.3,6.7,95,0.00,,OVC,0.00,VWS V14.01,2013-03-04 21:30:00,
2013-03-04 16:35:00,34.2,32.9,29.47,NW,315,4.0,6.0,95,0.00,,OVC,0.00,VWS V14.01,2013-03-04 21:35:00,
2013-03-04 16:40:00,34.2,33.1,29.47,NW,315,5.6,7.2,96,0.00,,OVC,0.00,VWS V14.01,2013-03-04 21:40:00,
2013-03-04 16:45:00,34.3,33.6,29.47,NW,315,3.4,6.5,97,0.00,,OVC,0.00,VWS V14.01,2013-03-04 21:45:00,
2013-03-04 16:51:00,34.2,33.4,29.47,NNW,338,4.9,5.4,97,0.00,,OVC,0.00,VWS V14.01,2013-03-04 21:51:00,
2013-03-04 16:56:00,34.2,33.4,29.47,North,0,2.7,5.4,97,0.00,,OVC,0.00,VWS V14.01,2013-03-04 21:56:00,
2013-03-04 17:00:00,33.3,32.8,29.47,NW,315,4.0,4.3,98,0.00,,,0.00,VWS V14.01,2013-03-04 22:00:00,
2013-03-04 17:01:00,34.0,33.2,29.47,NNW,338,3.4,4.3,97,0.00,,OVC,0.00,VWS V14.01,2013-03-04 22:01:00,
2013-03-04 17:06:00,33.8,33.0,29.50,NNW,338,2.7,3.1,97,0.00,,OVC,0.00,VWS V14.01,2013-03-04 22:06:00,
2013-03-04 17:11:00,33.6,32.9,29.50,NNW,338,0.0,0.0,97,0.00,,OVC,0.00,VWS V14.01,2013-03-04 22:11:00,
2013-03-04 17:16:00,33.4,32.7,29.50,NNW,338,2.9,3.6,97,0.00,,OVC,0.00,VWS V14.01,2013-03-04 22:16:00,
2013-03-04 17:21:00,33.3,32.5,29.50,NNW,338,2.7,5.4,97,0.00,,OVC,0.00,VWS V14.01,2013-03-04 22:21:00,
2013-03-04 17:26:00,33.3,32.8,29.50,NNW,338,2.5,3.4,98,0.00,,OVC,0.00,VWS V14.01,2013-03-04 22:26:00,
2013-03-04 17:30:00,33.4,32.9,29.53,NNW,338,4.7,6.3,98,0.00,,,0.00,VWS V14.01,2013-03-04 22:30:00,
2013-03-04 17:31:00,33.3,32.8,29.50,NNW,338,3.6,3.6,98,0.00,,OVC,0.00,VWS V14.01,2013-03-04 22:31:00,
2013-03-04 17:36:00,33.3,32.8,29.50,NNW,338,5.4,5.4,98,0.00,,OVC,0.00,VWS V14.01,2013-03-04 22:36:00,
2013-03-04 17:41:00,33.4,32.9,29.50,NNW,338,5.6,5.6,98,0.00,,OVC,0.00,VWS V14.01,2013-03-04 22:41:00,
2013-03-04 17:46:00,33.4,32.9,29.50,NNW,338,3.1,5.8,98,0.00,,OVC,0.00,VWS V14.01,2013-03-04 22:46:00,
2013-03-04 17:51:00,33.4,32.9,29.47,NNW,338,2.9,4.7,98,0.00,,OVC,0.00,VWS V14.01,2013-03-04 22:51:00,
2013-03-04 17:56:00,33.3,32.8,29.47,NW,315,4.0,4.3,98,0.00,,OVC,0.00,VWS V14.01,2013-03-04 22:56:00,
2013-03-04 18:00:00,33.8,33.3,29.53,NNW,338,5.4,6.5,98,0.00,,,0.00,VWS V14.01,2013-03-04 23:00:00,
2013-03-04 18:01:00,33.3,32.8,29.47,NNW,338,3.8,5.8,98,0.00,,OVC,0.00,VWS V14.01,2013-03-04 23:01:00,
2013-03-04 18:06:00,33.3,32.8,29.50,NNW,338,4.9,4.9,98,0.00,,OVC,0.00,VWS V14.01,2013-03-04 23:06:00,
2013-03-04 18:11:00,33.4,32.9,29.50,NNW,338,4.3,4.7,98,0.00,,OVC,0.00,VWS V14.01,2013-03-04 23:11:00,
2013-03-04 18:16:00,33.4,32.9,29.50,NNW,338,4.9,4.9,98,0.00,,OVC,0.00,VWS V14.01,2013-03-04 23:16:00,
2013-03-04 18:21:00,33.4,32.9,29.53,NNW,338,3.8,3.8,98,0.00,,OVC,0.00,VWS V14.01,2013-03-04 23:21:00,
2013-03-04 18:26:00,33.4,32.9,29.53,NNW,338,5.6,6.3,98,0.00,,OVC,0.00,VWS V14.01,2013-03-04 23:26:00,
2013-03-04 18:30:00,34.0,33.5,29.53,NNW,338,5.6,10.7,98,0.00,,,0.00,VWS V14.01,2013-03-04 23:30:00,
2013-03-04 18:31:00,33.4,32.9,29.53,NNW,338,5.6,7.2,98,0.00,,OVC,0.00,VWS V14.01,2013-03-04 23:31:00,
2013-03-04 18:36:00,33.4,32.9,29.50,NNW,338,4.7,6.0,98,0.00,,OVC,0.00,VWS V14.01,2013-03-04 23:36:00,
2013-03-04 18:41:00,33.6,33.1,29.50,NNW,338,6.5,6.5,98,0.00,,OVC,0.00,VWS V14.01,2013-03-04 23:41:00,
2013-03-04 18:46:00,33.6,33.1,29.53,NNW,338,5.8,9.0,98,0.00,,OVC,0.00,VWS V14.01,2013-03-04 23:46:00,
2013-03-04 18:51:00,33.6,33.1,29.53,WNW,292,8.5,8.7,98,0.00,,OVC,0.00,VWS V14.01,2013-03-04 23:51:00,
2013-03-04 18:56:00,33.8,33.3,29.53,NNW,338,5.6,6.5,98,0.00,,OVC,0.00,VWS V14.01,2013-03-04 23:56:00,
2013-03-04 19:00:00,33.8,33.3,29.53,NNW,338,9.8,9.8,98,0.00,,,0.00,VWS V14.01,2013-03-05 00:00:00,
2013-03-04 19:01:00,33.8,33.3,29.53,NNW,338,9.8,9.8,98,0.00,,OVC,0.00,VWS V14.01,2013-03-05 00:01:00,
2013-03-04 19:06:00,33.8,33.3,29.53,NNW,338,4.9,8.5,98,0.00,,OVC,0.00,VWS V14.01,2013-03-05 00:06:00,
2013-03-04 19:11:00,33.8,33.3,29.53,NNW,338,12.1,12.1,98,0.00,,OVC,0.00,VWS V14.01,2013-03-05 00:11:00,
2013-03-04 19:16:00,34.0,33.5,29.53,NNW,338,8.5,8.5,98,0.00,,OVC,0.00,VWS V14.01,2013-03-05 00:16:00,
2013-03-04 19:21:00,34.0,33.5,29.53,NNW,338,6.0,6.9,98,0.00,,OVC,0.00,VWS V14.01,2013-03-05 00:21:00,
2013-03-04 19:26:00,34.0,33.5,29.53,NW,315,4.9,7.6,98,0.00,,OVC,0.00,VWS V14.01,2013-03-05 00:26:00,
2013-03-04 19:30:00,33.8,33.3,29.56,NNW,338,6.5,8.1,98,0.00,,,0.00,VWS V14.01,2013-03-05 00:30:00,
2013-03-04 19:31:00,34.0,33.5,29.53,NNW,338,6.3,7.8,98,0.00,,OVC,0.00,VWS V14.01,2013-03-05 00:31:00,
2013-03-04 19:36:00,33.8,33.3,29.53,NNW,338,5.6,7.2,98,0.00,,OVC,0.00,VWS V14.01,2013-03-05 00:36:00,
2013-03-04 19:41:00,33.8,33.3,29.53,NNW,338,8.7,8.7,98,0.00,,OVC,0.00,VWS V14.01,2013-03-05 00:41:00,
2013-03-04 19:46:00,33.8,33.3,29.53,WNW,292,4.9,5.8,98,0.00,,OVC,0.00,VWS V14.01,2013-03-05 00:46:00,
2013-03-04 19:51:00,33.8,33.3,29.53,NNW,338,4.0,10.3,98,0.00,,OVC,0.00,VWS V14.01,2013-03-05 00:51:00,
2013-03-04 19:56:00,33.8,33.3,29.53,NNW,338,5.8,9.8,98,0.00,,OVC,0.00,VWS V14.01,2013-03-05 00:56:00,
2013-03-04 20:00:00,33.8,33.3,29.56,WNW,292,4.0,8.1,98,0.00,,,0.00,VWS V14.01,2013-03-05 01:00:00,
2013-03-04 20:01:00,33.8,33.3,29.56,NW,315,5.4,6.0,98,0.00,,OVC,0.00,VWS V14.01,2013-03-05 01:01:00,
2013-03-04 20:06:00,33.8,33.3,29.56,NNW,338,7.4,7.4,98,0.00,,OVC,0.00,VWS V14.01,2013-03-05 01:06:00,
2013-03-04 20:11:00,33.8,33.3,29.56,NNW,338,8.1,10.3,98,0.00,,OVC,0.00,VWS V14.01,2013-03-05 01:11:00,
2013-03-04 20:16:00,33.8,33.3,29.56,North,0,5.8,6.0,98,0.00,,OVC,0.00,VWS V14.01,2013-03-05 01:16:00,
2013-03-04 20:22:00,33.8,33.3,29.56,NNW,338,7.8,8.5,98,0.00,,OVC,0.00,VWS V14.01,2013-03-05 01:22:00,
2013-03-04 20:27:00,33.8,33.3,29.56,North,0,5.4,8.1,98,0.00,,OVC,0.00,VWS V14.01,2013-03-05 01:27:00,
2013-03-04 20:30:00,33.8,33.3,29.59,NNW,338,5.4,7.6,98,0.00,,,0.00,VWS V14.01,2013-03-05 01:30:00,
2013-03-04 20:32:00,33.8,33.3,29.56,NNW,338,6.0,6.3,98,0.00,,OVC,0.00,VWS V14.01,2013-03-05 01:32:00,
2013-03-04 20:37:00,33.8,33.3,29.56,NNW,338,6.5,8.5,98,0.00,,OVC,0.00,VWS V14.01,2013-03-05 01:37:00,
2013-03-04 20:42:00,33.8,33.3,29.56,NNW,338,5.4,8.7,98,0.00,,OVC,0.00,VWS V14.01,2013-03-05 01:42:00,
2013-03-04 20:47:00,33.8,33.3,29.56,NNW,338,5.8,7.6,98,0.00,,OVC,0.00,VWS V14.01,2013-03-05 01:47:00,
2013-03-04 20:52:00,33.8,33.3,29.56,NNW,338,6.9,6.9,98,0.00,,OVC,0.00,VWS V14.01,2013-03-05 01:52:00,
2013-03-04 20:57:00,33.8,33.3,29.56,NNW,338,4.5,8.1,98,0.00,,OVC,0.00,VWS V14.01,2013-03-05 01:57:00,
2013-03-04 21:00:00,33.8,33.3,29.59,NNW,338,6.3,7.6,98,0.00,,,0.00,VWS V14.01,2013-03-05 02:00:00,
2013-03-04 21:02:00,33.8,33.3,29.59,NW,315,6.0,8.1,98,0.00,,OVC,0.00,VWS V14.01,2013-03-05 02:02:00,
2013-03-04 21:07:00,33.8,33.3,29.59,NW,315,7.6,7.6,98,0.00,,OVC,0.00,VWS V14.01,2013-03-05 02:07:00,
2013-03-04 21:12:00,33.8,33.3,29.59,NW,315,6.5,9.8,98,0.00,,OVC,0.00,VWS V14.01,2013-03-05 02:12:00,
2013-03-04 21:17:00,33.8,33.3,29.59,NNW,338,4.9,7.6,98,0.00,,OVC,0.00,VWS V14.01,2013-03-05 02:17:00,
2013-03-04 21:22:00,33.8,33.3,29.59,NNW,338,5.4,8.1,98,0.00,,OVC,0.00,VWS V14.01,2013-03-05 02:22:00,
2013-03-04 21:27:00,33.8,33.3,29.59,WNW,292,5.6,6.3,98,0.00,,OVC,0.00,VWS V14.01,2013-03-05 02:27:00,
2013-03-04 21:30:00,33.6,33.1,29.62,NNW,338,4.0,7.2,98,0.00,,,0.00,VWS V14.01,2013-03-05 02:30:00,
2013-03-04 21:32:00,33.8,33.3,29.59,NNW,338,5.8,6.5,98,0.00,,OVC,0.00,VWS V14.01,2013-03-05 02:32:00,
2013-03-04 21:37:00,33.8,33.3,29.59,NNW,338,7.6,7.8,98,0.00,,OVC,0.00,VWS V14.01,2013-03-05 02:37:00,
2013-03-04 21:42:00,33.8,33.3,29.59,NNW,338,5.4,8.5,98,0.00,,OVC,0.00,VWS V14.01,2013-03-05 02:42:00,
2013-03-04 21:47:00,33.6,33.1,29.59,NNW,338,3.8,5.8,98,0.00,,OVC,0.00,VWS V14.01,2013-03-05 02:47:00,
2013-03-04 21:52:00,33.6,33.1,29.59,NNW,338,6.5,6.5,98,0.00,,OVC,0.00,VWS V14.01,2013-03-05 02:52:00,
2013-03-04 21:57:00,33.8,33.3,29.59,NNW,338,4.0,6.3,98,0.00,,OVC,0.00,VWS V14.01,2013-03-05 02:57:00,
2013-03-04 22:00:00,33.6,33.1,29.62,NNW,338,6.3,6.3,98,0.00,,,0.00,VWS V14.01,2013-03-05 03:00:00,
2013-03-04 22:02:00,33.8,33.3,29.62,NNW,338,8.1,8.1,98,0.00,,OVC,0.00,VWS V14.01,2013-03-05 03:02:00,
2013-03-04 22:07:00,33.6,33.1,29.62,NNW,338,5.4,6.5,98,0.00,,OVC,0.00,VWS V14.01,2013-03-05 03:07:00,
2013-03-04 22:12:00,33.6,33.1,29.62,NNW,338,6.0,6.3,98,0.00,,OVC,0.00,VWS V14.01,2013-03-05 03:12:00,
2013-03-04 22:17:00,33.6,33.1,29.62,NNW,338,5.8,6.3,98,0.00,,OVC,0.00,VWS V14.01,2013-03-05 03:17:00,
2013-03-04 22:22:00,33.6,33.1,29.62,NNW,338,4.5,6.5,98,0.00,,OVC,0.00,VWS V14.01,2013-03-05 03:22:00,
2013-03-04 22:27:00,33.6,33.1,29.62,NNW,338,2.0,5.4,98,0.00,,OVC,0.00,VWS V14.01,2013-03-05 03:27:00,
2013-03-04 22:30:00,33.6,33.1,29.62,NNW,338,7.6,7.8,98,0.00,,,0.00,VWS V14.01,2013-03-05 03:30:00,
2013-03-04 22:32:00,33.6,33.1,29.62,NNE,22,2.0,6.3,98,0.00,,OVC,0.00,VWS V14.01,2013-03-05 03:32:00,
2013-03-04 22:37:00,33.6,33.1,29.62,NNW,338,6.0,6.5,98,0.00,,OVC,0.00,VWS V14.01,2013-03-05 03:37:00,
2013-03-04 22:42:00,33.6,33.1,29.62,NW,315,5.4,7.2,98,0.00,,OVC,0.00,VWS V14.01,2013-03-05 03:42:00,
2013-03-04 22:47:00,33.6,33.1,29.62,NW,315,3.8,4.7,98,0.00,,OVC,0.00,VWS V14.01,2013-03-05 03:47:00,
2013-03-04 22:52:00,33.6,33.1,29.62,NNW,338,5.8,6.5,98,0.00,,OVC,0.00,VWS V14.01,2013-03-05 03:52:00,
2013-03-04 22:57:00,33.6,33.1,29.62,NNW,338,4.9,6.0,98,0.00,,OVC,0.00,VWS V14.01,2013-03-05 03:57:00,
2013-03-04 23:00:00,33.8,33.3,29.65,NNE,22,2.7,8.5,98,0.00,,,0.00,VWS V14.01,2013-03-05 04:00:00,
2013-03-04 23:02:00,33.6,33.1,29.62,NNW,338,5.6,6.3,98,0.00,,OVC,0.00,VWS V14.01,2013-03-05 04:02:00,
2013-03-04 23:07:00,33.6,33.1,29.62,NNW,338,5.6,5.8,98,0.00,,OVC,0.00,VWS V14.01,2013-03-05 04:07:00,
2013-03-04 23:12:00,33.6,33.1,29.62,NW,315,7.4,7.4,98,0.00,,OVC,0.00,VWS V14.01,2013-03-05 04:12:00,
2013-03-04 23:17:00,33.6,33.1,29.62,NNW,338,5.8,5.8,98,0.00,,OVC,0.00,VWS V14.01,2013-03-05 04:17:00,
2013-03-04 23:22:00,33.6,33.1,29.62,North,0,6.0,7.4,98,0.00,,OVC,0.00,VWS V14.01,2013-03-05 04:22:00,
2013-03-04 23:27:00,33.6,33.1,29.62,NNW,338,5.6,6.0,98,0.00,,OVC,0.00,VWS V14.01,2013-03-05 04:27:00,
2013-03-04 23:30:00,33.8,33.3,29.65,NNW,338,6.9,7.4,98,0.00,,,0.00,VWS V14.01,2013-03-05 04:30:00,
2013-03-04 23:32:00,33.8,33.3,29.62,NNW,338,5.4,5.8,98,0.00,,OVC,0.00,VWS V14.01,2013-03-05 04:32:00,
2013-03-04 23:37:00,33.8,33.3,29.62,NNW,338,8.1,8.1,98,0.00,,OVC,0.00,VWS V14.01,2013-03-05 04:37:00,
2013-03-04 23:42:00,33.8,33.3,29.62,NNW,338,4.0,5.6,98,0.00,,OVC,0.00,VWS V14.01,2013-03-05 04:42:00,
2013-03-04 23:47:00,33.6,33.1,29.65,NW,315,3.6,4.0,98,0.00,,OVC,0.00,VWS V14.01,2013-03-05 04:47:00,
2013-03-04 23:52:00,33.6,33.1,29.65,North,0,10.5,10.5,98,0.00,,OVC,0.00,VWS V14.01,2013-03-05 04:52:00,
2013-03-04 23:57:00,33.8,33.3,29.65,NNW,338,5.6,6.0,98,0.00,,OVC,0.00,VWS V14.01,2013-03-05 04:57:00,